AQI (48)

Current Conditions for Foresthill, CA. Scattered clouds, Dry   
Visibility: 10 miles
Cloud ht: 2841 ft
Space WX Alerts: ALERT:  Geomagnetic K-index of 4 ( Latest Alert ) - Issue Time: 2019 Jun 13 2355 UTC

  Summary / Temperature 

Current Temperature
68.2°F
20.1°C
(24/hr Ago)
65.6°F
(Apparent temp)
70.6°F
Comfortable
Wind Chill Graphs
68.2°F 

75.3°F/ 24.1°C
Little or no discomfort

 Temp Rate:

 24/hr Difference:

 Avg Running Temp:

 Todays High:

 Todays Low:

 Y-days High:

 Y-days Low:

 Todays WChill:

 Y-days WChill:

 Evapotranspiration:

-1.7°F/hr 

+2.6°F

68.9°F

78.7°F 3:09pm

61.7°F 6:52am

79.9°F 2:02pm

63.6°F 7:08am

60.9°F 7:25am

62.4°F 5:52am

0.198 in

115' Above Ground

 Temperature:

 6'AGL VRS 115'AGL:

 Avg Running Temp:

 Humidity:

 Todays High:

 Todays Low:

 Y-days High:

 Y-days Low:

71.0°F 

+2.8°F

72.0°F

65% 

79.0°F 3:06pm

64.0°F 4:55am

81.0°F 2:37pm

66.0°F 5:05am

Temp & Humidity Graphs

  Wind 

Wind Speed

 2.0 mph

Gusting to

 7.0 mph

Wind from E

94°  E

Light air

 Avg speed:

 Wind Run:

 Peak Gust:

  1.0 mph 

24.0 miles

  12.0 mph 10:30pm

  Almanac  

Moon age: 14 days,15 hours,44 minutes,100%

Full moon
100%
Illuminated
14 days in cycle

 Moonrise:

 Moonset:

 Sunrise:

 Sunset:

 Solar Noon:

8:06pm

5:12am

5:36am

8:30pm

1:04pm

0min 18s more daylight tomorrow 

  Solar Radiation 

(Current Solar)
  No Sun Light
(Todays High)
 926 W/m2@12:41pm

Rain

 Rain Today:

 Rain Rate (/hr):

 Rain last hour:

 Rain Yesterday:

 This Month:

 Season Total:

13 Days Since Last Rain Day

0.00 in

0.000 in

0.00 in

0.00 in

0.23 in

52.93 in

Updated Time

Updated: 6/16/19  10:56pm

(Updated  sec ago)

Humidity & Barometer

 Humidity:

 Wetbulb:

 Dew Point:

 Barometer:

73% 

62.6°F 

59.2°F 

29.773 inHg 

 Baro Trend:  Steady 
Northern Calif
Preparedness
Fire 
Level 

    UV Index  

(Current UV)
0.0  None
(Todays High) @ 12:34pm
7.7   High

National Weather Service Forecast

Tonight

Tonight: Mostly Clear
Mostly Clear
Monday

Monday: Sunny
Sunny
Monday
Night
Monday Night: Mostly Clear
Mostly Clear
Tuesday

Tuesday: Sunny
Sunny
Tuesday
Night
Tuesday Night: Clear
Clear
Wednesday

Wednesday: Sunny
Sunny
Lo 64 °F Hi 89 °F Lo 68 °F Hi 92 °F Lo 66 °F Hi 89 °F

Foresthill Probe 2 Stats  
Foresthill Probe 2: is located on Thomas Street
at 3000 feet. The main Foresthill Weather site
is located on Melody ln at the 2860 foot elevation

Calm
68.0°F
20°C
Temp Rate:
-2.3°F
1.0 mph
Gusting to
1.0 mph
(Humidity)
74%
Wind from ESE
115°  ESE
Updated: 16/06/19 - 22:50:57
 Todays High: 84.1°F 15:05
 Todays Low: 60.5°F 06:18
 Rain Today: 0.00 in
 Season Total: 57.64 in

Foresthill Wx: Monthly,Yearly, Highs and Lows 

Foresthill  
This Weather Data is coming from the main Foresthill
Weather site located on Melody ln at the 2860 foot
elevation
Not Foresthill Probe 2
Weather Data
Month
  High
Month
  Low
Year
High
Year
Low
Temp 89.3°F
6/11/19
50.5°F
6/7/19
89.3°F
6/11/19
24.5°F
2/18/19
Humidity 93%
6/1/19
18%
6/10/19
100%
1/9/19
14%
4/22/19
Heat Index 87.3°F
6/11/19
53.6°F
6/7/19
87.3°F
6/11/19
30.1°F
2/22/19
Wind Chill 89.3°F
6/11/19
46.2°F
6/7/19
89.3°F
6/11/19
11.5°F
2/11/19
Wind Gust 30 mph
6/8/19
0 mph
6/1/19
48 mph
2/27/19
0 mph
1/1/19
Barometer 30.06 in
6/10/19
29.75 in
6/1/19
30.54 in
1/23/19
29.37 in
2/14/19
ET 0.27 in
6/9/19
0.00 in
6/1/19
0.27 in
6/9/19
0.00 in
1/1/19
Dew Point 66.6°F
6/4/19
24.6°F
6/9/19
66.6°F
6/4/19
7.7°F
1/1/19
Pacific Satellite US Radar Satellite Imagery Sacramento,CA.  (click to enlarge)
NWS Weather Forecast - Summary
Updated: Sunday, June 16, 2019 - 2:11pm PDT
Breezy northerly winds and low afternoon RH early next week for Northern Sacramento Valley
Current Interstate Highway Conditions for I-80 & US-50

[I 80: IN THE SAN FRANCISCO BAY AREA - SOLANO CO]
no traffic restrictions are reported for this area.

[I 80: IN THE NORTHERN CALIFORNIA AREA & SIERRA NEVADA]
no traffic restrictions are reported for this area.

[US 50: IN THE SACRAMENTO VALLEY & THE LAKE TAHOE BASIN]
no traffic restrictions are reported for this area.
NWS Weather Forecast: Tonight and Monday (Updated: Sun, 16-Jun-2019 2:18pm PDT)
Tonight

Tonight: Mostly Clear
Mostly Clear

Lo 64 °F
NWS forecast: Mostly clear, with a low around 64. East wind around 6 mph.
Monday

Monday: Sunny
Sunny

Hi 89 °F
NWS forecast: Sunny, with a high near 89. Northwest wind 3 to 8 mph.
YR.NO 10 Day Weather forecast
Last update: 06/16/2019 @ 12:36
Next update: 06/17/2019 @ 01:00
Provided by: 22
      Temperature Precipitation Pressure Wind  
Today
06/16/2019
21:00 00:00 66°F   29.78 inHg Light air from east-southeast 2 mph
    (Click to enlarge)
meteogram

    Forecast for next 9 days

      Temperature Precip Pressure Wind  
Monday
06/17/2019
00:00 06:00 59°F   29.78 inHg Light air from east-northeast 2 mph
  06:00 12:00 54°F   29.75 inHg Light breeze from east-northeast 5 mph
  12:00 18:00 82°F   29.78 inHg Light breeze from west-southwest 4 mph
  18:00 00:00 84°F   29.75 inHg Light breeze from west-southwest 5 mph
      Temperature Precip Pressure Wind  
Tuesday
06/18/2019
00:00 06:00 61°F   29.83 inHg Light air from east-northeast 3 mph
  06:00 12:00 61°F   29.83 inHg Gentle breeze from east-northeast 8 mph
  12:00 18:00 90°F   29.86 inHg Gentle breeze from west-southwest 8 mph
  18:00 00:00 88°F   29.82 inHg Gentle breeze from south-southwest 8 mph
      Temperature Precip Pressure Wind  
Wednesday
06/19/2019
00:00 06:00 63°F   29.87 inHg Light breeze from east 4 mph
  05:00 11:00 59°F   29.88 inHg Light breeze from east 4 mph
  11:00 17:00 82°F   29.91 inHg Light breeze from west-southwest 5 mph
  17:00 23:00 84°F   29.84 inHg Light breeze from southwest 6 mph
  23:00 05:00 66°F   29.86 inHg Light breeze from east-southeast 4 mph
      Temperature Precip Pressure Wind  
Thursday
06/20/2019
05:00 11:00 55°F   29.85 inHg Light air from east 2 mph
  11:00 17:00 73°F   29.85 inHg Light breeze from southwest 6 mph
  17:00 23:00 77°F   29.76 inHg Light breeze from southwest 7 mph
  23:00 05:00 61°F   29.80 inHg Light air from east-northeast 2 mph
      Temperature Precip Pressure Wind  
Friday
06/21/2019
05:00 11:00 54°F   29.78 inHg Light air from northeast 2 mph
  11:00 17:00 73°F   29.82 inHg Light breeze from west 7 mph
  17:00 23:00 79°F   29.77 inHg Gentle breeze from west-northwest 11 mph
  23:00 05:00 61°F   29.79 inHg Light breeze from east-northeast 7 mph
      Temperature Precip Pressure Wind  
Saturday
06/22/2019
05:00 11:00 61°F   29.80 inHg Gentle breeze from east-northeast 10 mph
  11:00 17:00 79°F   29.83 inHg Gentle breeze from west-southwest 8 mph
  17:00 23:00 82°F   29.79 inHg Light breeze from west-southwest 6 mph
  23:00 05:00 63°F   29.83 inHg Light breeze from east-northeast 5 mph
      Temperature Precip Pressure Wind  
Sunday
06/23/2019
05:00 11:00 54°F   29.79 inHg Light breeze from east-northeast 5 mph
  11:00 17:00 79°F   29.80 inHg Gentle breeze from south-southwest 8 mph
  17:00 23:00 79°F   29.74 inHg Light breeze from southwest 7 mph
  23:00 05:00 61°F   29.76 inHg Light air from east-northeast 3 mph
      Temperature Precip Pressure Wind  
Monday
06/24/2019
05:00 11:00 52°F   29.73 inHg Light breeze from east-northeast 4 mph
  11:00 17:00 73°F   29.78 inHg Light breeze from southwest 6 mph
  17:00 23:00 75°F   29.73 inHg Light breeze from southwest 7 mph
  23:00 05:00 63°F   29.79 inHg Light air from east-southeast 3 mph
      Temperature Precip Pressure Wind  
Tuesday
06/25/2019
05:00 11:00 52°F   29.81 inHg Light breeze from east-northeast 4 mph
  11:00 17:00 72°F   29.87 inHg Light breeze from southwest 6 mph
  17:00 23:00 75°F   29.86 inHg Light breeze from southwest 6 mph
  23:00 05:00 61°F   29.89 inHg Light breeze from east-southeast 5 mph

NOAA Local Storm Report
3 MILES EAST-SOUTHEAST OF CAROL CITY   ( More )
DATE
06/14/2019
TIME
6:21 PM
COUNTY
MIAMI-DADE
STATE
FL
GEOGRAPHIC
25.93N 80.22W
SOURCE
BROADCAST MEDIA
HEAVY RAIN ESTIMATED AT 3.00 INCH
street flooding in miami gardens. Radar estimates around 3 inches fell in this area from thunderstorms.
How Close Are We To this Month's Temperature Record ?
Updated Sunday, Jun 16, 2019- 10:50:00 PM

Current Temperature: 68.2°F

June's High: Temperature Record 95.1°F - Set on Sat, Jun 8, 2013 - 3:58:00 PM
We are currently 26.9°F Less than this Month's record High

June's Low: Temperature Record 40.8°F - Set on Tue, Jun 5, 2012 - 5:41:00 AM
We are currently 27.4°F More than this Month's record Low

Weather History For Monday, June 17, 2019


On this Day - In Weather History ...
Data courtesy of weatherforyou.com
powered by Cumulus v1.9.3 (1059)
Ambient Weather VWS v14.00
Top Contact Website Map Copyright © 2007 - 2019 Foresthillweather.com Never base important decisions on this or any weather information obtained from the Internet